"Sample Date","Sample Time","Sample Value","Units","Flow Rate","Sample Interval","Number Channels","Micron Size 0","Counts/Channel 0","Micron Size 1","Counts/Channel 1","Micron Size 2","Counts/Channel 2","Micron Size 3","Counts/Channel 3","Micron Size 4","Counts/Channel 4","Micron Size 5","Counts/Channel 5","Micron Size 6","Counts/Channel 6","Micron Size 7","Counts/Channel 7","Micron Size 8","Counts/Channel 8","Micron Size 9","Counts/Channel 9","Micron Size 10","Counts/Channel 10","Micron Size 11","Counts/Channel 11","Micron Size 12","Counts/Channel 12","Micron Size 13","Counts/Channel 13","Micron Size 14","Counts/Channel 14","Micron Size 15","Counts/Channel 15","Micron Size 16","Counts/Channel 16","Micron Size 17","Counts/Channel 17","Micron Size 18","Counts/Channel 18","Micron Size 19","Counts/Channel 19","Micron Size 20","Counts/Channel 20","Micron Size 21","Counts/Channel 21","Micron Size 22","Counts/Channel 22","Micron Size 23","Counts/Channel 23","Micron Size 24","Counts/Channel 24","Micron Size 25","Counts/Channel 25","Micron Size 26","Counts/Channel 26","Micron Size 27","Counts/Channel 27","Micron Size 28","Counts/Channel 28","Micron Size 29","Counts/Channel 29","Micron Size 30","Counts/Channel 30","Micron Size 31","Counts/Channel 31"
"04/03/08","20:00:03",15518.000,"cc",28287.377,6.00,6,0.100,9821.000,0.200,1944.000,0.300,1491.000,0.500,1702.000,1.000,560.000,5.000,0
"04/03/08","20:00:09",15690.000,"cc",28320.955,6.00,6,0.100,9867.000,0.200,1971.000,0.300,1642.000,0.500,1665.000,1.000,545.000,5.000,0
"04/03/08","20:00:15",15798.000,"cc",28355.098,6.00,6,0.100,10086.000,0.200,1925.000,0.300,1561.000,0.500,1658.000,1.000,568.000,5.000,0
"04/03/08","20:00:21",15538.000,"cc",28318.256,6.00,6,0.100,9782.000,0.200,1923.000,0.300,1534.000,0.500,1718.000,1.000,581.000,5.000,0
"04/03/08","20:00:27",15657.000,"cc",28322.223,6.00,6,0.100,9881.000,0.200,1946.000,0.300,1562.000,0.500,1696.000,1.000,572.000,5.000,0
"04/03/08","20:00:33",15718.000,"cc",28353.758,6.00,6,0.100,9887.000,0.200,1966.000,0.300,1559.000,0.500,1705.000,1.000,601.000,5.000,0
"04/03/08","20:00:39",15741.000,"cc",28315.205,6.00,6,0.100,9991.000,0.200,1904.000,0.300,1558.000,0.500,1702.000,1.000,586.000,5.000,0
"04/03/08","20:00:45",15435.000,"cc",28304.018,6.00,6,0.100,9717.000,0.200,1852.000,0.300,1576.000,0.500,1729.000,1.000,561.000,5.000,0
"04/03/08","20:00:51",15648.000,"cc",28344.422,6.00,6,0.100,9801.000,0.200,1918.000,0.300,1598.000,0.500,1756.000,1.000,575.000,5.000,0
"04/03/08","20:00:57",15772.000,"cc",28341.004,6.00,6,0.100,9823.000,0.200,1929.000,0.300,1653.000,0.500,1779.000,1.000,588.000,5.000,0
"04/03/08","20:01:03",15508.000,"cc",28336.166,6.00,6,0.100,9753.000,0.200,1843.000,0.300,1570.000,0.500,1727.000,1.000,615.000,5.000,0
"04/03/08","20:01:09",15600.000,"cc",28291.844,6.00,6,0.100,9748.000,0.200,1985.000,0.300,1518.000,0.500,1765.000,1.000,584.000,5.000,0
"04/03/08","20:01:15",15624.000,"cc",28329.313,6.00,6,0.100,9850.000,0.200,1874.000,0.300,1595.000,0.500,1733.000,1.000,572.000,5.000,0
"04/03/08","20:01:21",15730.000,"cc",28306.996,6.00,6,0.100,9882.000,0.200,1976.000,0.300,1568.000,0.500,1727.000,1.000,577.000,5.000,0
"04/03/08","20:01:27",15594.000,"cc",28422.799,6.00,6,0.100,9764.000,0.200,1923.000,0.300,1531.000,0.500,1765.000,1.000,611.000,5.000,0
"04/03/08","20:01:33",15686.000,"cc",28333.104,6.00,6,0.100,9791.000,0.200,1983.000,0.300,1556.000,0.500,1756.000,1.000,600.000,5.000,0
"04/03/08","20:01:39",15828.000,"cc",28255.504,6.00,6,0.100,9909.000,0.200,1986.000,0.300,1607.000,0.500,1741.000,1.000,585.000,5.000,0
"04/03/08","20:01:45",15504.000,"cc",28311.606,6.00,6,0.100,9773.000,0.200,1890.000,0.300,1465.000,0.500,1773.000,1.000,603.000,5.000,0
"04/03/08","20:01:51",15776.000,"cc",28361.102,6.00,6,0.100,9992.000,0.200,1946.000,0.300,1585.000,0.500,1673.000,1.000,580.000,5.000,0
"04/03/08","20:01:57",15494.000,"cc",28283.852,6.00,6,0.100,9756.000,0.200,1915.000,0.300,1548.000,0.500,1721.000,1.000,554.000,5.000,0
"04/03/08","20:02:03",15546.000,"cc",28349.857,6.00,6,0.100,9841.000,0.200,1933.000,0.300,1498.000,0.500,1676.000,1.000,598.000,5.000,0
"04/03/08","20:02:09",15757.000,"cc",28340.203,6.00,6,0.100,9914.000,0.200,1905.000,0.300,1558.000,0.500,1836.000,1.000,544.000,5.000,0
"04/03/08","20:02:15",15618.000,"cc",28333.482,6.00,6,0.100,9836.000,0.200,1959.000,0.300,1497.000,0.500,1702.000,1.000,624.000,5.000,0
"04/03/08","20:02:21",15596.000,"cc",28328.238,6.00,6,0.100,9857.000,0.200,1893.000,0.300,1545.000,0.500,1721.000,1.000,580.000,5.000,0
"04/03/08","20:02:27",15624.000,"cc",28331.100,6.00,6,0.100,9848.000,0.200,1971.000,0.300,1576.000,0.500,1671.000,1.000,558.000,5.000,0
"04/03/08","20:02:33",15602.000,"cc",28230.379,6.00,6,0.100,9810.000,0.200,1965.000,0.300,1552.000,0.500,1675.000,1.000,600.000,5.000,0
"04/03/08","20:02:39",15630.000,"cc",28185.635,6.00,6,0.100,9917.000,0.200,1866.000,0.300,1566.000,0.500,1724.000,1.000,557.000,5.000,0
"04/03/08","20:02:45",15512.000,"cc",28389.539,6.00,6,0.100,9773.000,0.200,1899.000,0.300,1561.000,0.500,1694.000,1.000,585.000,5.000,0
"04/03/08","20:02:51",15776.000,"cc",28327.732,6.00,6,0.100,9923.000,0.200,1957.000,0.300,1599.000,0.500,1716.000,1.000,581.000,5.000,0
"04/03/08","20:02:57",15514.000,"cc",28287.311,6.00,6,0.100,9754.000,0.200,1968.000,0.300,1520.000,0.500,1722.000,1.000,550.000,5.000,0
"04/03/08","20:03:03",15772.000,"cc",28339.854,6.00,6,0.100,9922.000,0.200,1976.000,0.300,1533.000,0.500,1754.000,1.000,587.000,5.000,0
"04/03/08","20:03:09",15773.000,"cc",28304.707,6.00,6,0.100,9832.000,0.200,1919.000,0.300,1572.000,0.500,1852.000,1.000,598.000,5.000,0
"04/03/08","20:03:15",15750.000,"cc",28319.707,6.00,6,0.100,9930.000,0.200,1925.000,0.300,1576.000,0.500,1753.000,1.000,566.000,5.000,0
"04/03/08","20:03:21",15422.000,"cc",28307.732,6.00,6,0.100,9744.000,0.200,1914.000,0.300,1543.000,0.500,1666.000,1.000,555.000,5.000,0
"04/03/08","20:03:27",15685.000,"cc",28342.732,6.00,6,0.100,9976.000,0.200,1949.000,0.300,1514.000,0.500,1681.000,1.000,565.000,5.000,0
"04/03/08","20:03:33",15495.000,"cc",28344.443,6.00,6,0.100,9760.000,0.200,1895.000,0.300,1473.000,0.500,1774.000,1.000,593.000,5.000,0
"04/03/08","20:03:39",15696.000,"cc",28327.500,6.00,6,0.100,9756.000,0.200,2021.000,0.300,1551.000,0.500,1807.000,1.000,561.000,5.000,0
"04/03/08","20:03:45",15650.000,"cc",28352.820,6.00,6,0.100,9787.000,0.200,1947.000,0.300,1619.000,0.500,1721.000,1.000,576.000,5.000,0
"04/03/08","20:03:51",15661.000,"cc",28302.481,6.00,6,0.100,9693.000,0.200,1944.000,0.300,1571.000,0.500,1825.000,1.000,628.000,5.000,0
"04/03/08","20:03:57",15562.000,"cc",28316.475,6.00,6,0.100,9711.000,0.200,1911.000,0.300,1580.000,0.500,1768.000,1.000,592.000,5.000,0
"04/03/08","20:04:03",15891.000,"cc",28302.713,6.00,6,0.100,9972.000,0.200,1982.000,0.300,1600.000,0.500,1779.000,1.000,558.000,5.000,0
"04/03/08","20:04:09",15639.000,"cc",28387.672,6.00,6,0.100,9848.000,0.200,1917.000,0.300,1577.000,0.500,1719.000,1.000,578.000,5.000,0
"04/03/08","20:04:15",15458.000,"cc",28309.594,6.00,6,0.100,9791.000,0.200,1883.000,0.300,1540.000,0.500,1702.000,1.000,542.000,5.000,0
"04/03/08","20:04:21",15750.000,"cc",28263.240,6.00,6,0.100,9946.000,0.200,1933.000,0.300,1528.000,0.500,1770.000,1.000,573.000,5.000,0
"04/03/08","20:04:27",15655.000,"cc",28308.475,6.00,6,0.100,9972.000,0.200,1865.000,0.300,1519.000,0.500,1740.000,1.000,559.000,5.000,0
"04/03/08","20:04:33",15691.000,"cc",28310.801,6.00,6,0.100,9924.000,0.200,1897.000,0.300,1581.000,0.500,1755.000,1.000,534.000,5.000,0
"04/03/08","20:04:39",15682.000,"cc",28312.129,6.00,6,0.100,9965.000,0.200,1891.000,0.300,1504.000,0.500,1723.000,1.000,599.000,5.000,0
"04/03/08","20:04:45",15430.000,"cc",28347.113,6.00,6,0.100,9681.000,0.200,1953.000,0.300,1525.000,0.500,1693.000,1.000,578.000,5.000,0
"04/03/08","20:04:51",15692.000,"cc",28275.799,6.00,6,0.100,9846.000,0.200,2022.000,0.300,1496.000,0.500,1689.000,1.000,639.000,5.000,0
"04/03/08","20:04:57",15634.000,"cc",28335.795,6.00,6,0.100,9880.000,0.200,1818.000,0.300,1580.000,0.500,1749.000,1.000,607.000,5.000,0
"04/03/08","20:05:03",15554.000,"cc",28307.379,6.00,6,0.100,9801.000,0.200,1970.000,0.300,1486.000,0.500,1713.000,1.000,584.000,5.000,0
"04/03/08","20:05:09",15694.000,"cc",28338.920,6.00,6,0.100,9947.000,0.200,1916.000,0.300,1545.000,0.500,1747.000,1.000,539.000,5.000,0
"04/03/08","20:05:15",15605.000,"cc",28305.609,6.00,6,0.100,9756.000,0.200,1899.000,0.300,1589.000,0.500,1784.000,1.000,577.000,5.000,0
"04/03/08","20:05:21",15554.000,"cc",28392.516,6.00,6,0.100,9780.000,0.200,1945.000,0.300,1614.000,0.500,1628.000,1.000,587.000,5.000,0
"04/03/08","20:05:27",15904.000,"cc",28295.000,6.00,6,0.100,9912.000,0.200,2025.000,0.300,1577.000,0.500,1793.000,1.000,597.000,5.000,0
"04/03/08","20:05:33",15615.000,"cc",28315.164,6.00,6,0.100,9738.000,0.200,2031.000,0.300,1538.000,0.500,1755.000,1.000,553.000,5.000,0
"04/03/08","20:05:39",15625.000,"cc",28344.676,6.00,6,0.100,9854.000,0.200,1960.000,0.300,1523.000,0.500,1701.000,1.000,587.000,5.000,0
"04/03/08","20:05:45",15578.000,"cc",28346.602,6.00,6,0.100,9846.000,0.200,1963.000,0.300,1503.000,0.500,1688.000,1.000,578.000,5.000,0
"04/03/08","20:05:51",15720.000,"cc",28323.584,6.00,6,0.100,9834.000,0.200,1916.000,0.300,1545.000,0.500,1784.000,1.000,641.000,5.000,0
"04/03/08","20:05:57",15781.000,"cc",28307.625,6.00,6,0.100,10009.000,0.200,1889.000,0.300,1571.000,0.500,1729.000,1.000,583.000,5.000,0
"04/03/08","20:06:03",15639.000,"cc",28292.822,6.00,6,0.100,9824.000,0.200,1971.000,0.300,1499.000,0.500,1770.000,1.000,575.000,5.000,0
"04/03/08","20:06:09",15567.000,"cc",28268.500,6.00,6,0.100,9802.000,0.200,1973.000,0.300,1523.000,0.500,1727.000,1.000,542.000,5.000,0
"04/03/08","20:06:15",15674.000,"cc",28316.846,6.00,6,0.100,9834.000,0.200,1899.000,0.300,1559.000,0.500,1777.000,1.000,605.000,5.000,0
"04/03/08","20:06:21",15762.000,"cc",28290.231,6.00,6,0.100,9821.000,0.200,2022.000,0.300,1528.000,0.500,1829.000,1.000,562.000,5.000,0
"04/03/08","20:06:27",15787.000,"cc",28314.332,6.00,6,0.100,9886.000,0.200,2010.000,0.300,1606.000,0.500,1707.000,1.000,578.000,5.000,0
"04/03/08","20:06:33",16500.000,"cc",28295.857,6.00,6,0.100,10488.000,0.200,2067.000,0.300,1624.000,0.500,1721.000,1.000,600.000,5.000,0
"04/03/08","20:06:39",18011.000,"cc",28321.631,6.00,6,0.100,11937.000,0.200,2170.000,0.300,1574.000,0.500,1759.000,1.000,571.000,5.000,0
"04/03/08","20:06:45",20579.000,"cc",28292.568,6.00,6,0.100,14247.000,0.200,2457.000,0.300,1600.000,0.500,1731.000,1.000,544.000,5.000,0
"04/03/08","20:06:51",23283.000,"cc",28301.098,6.00,6,0.100,16590.000,0.200,2713.000,0.300,1615.000,0.500,1756.000,1.000,609.000,5.000,0
"04/03/08","20:06:57",29249.000,"cc",28266.039,6.00,6,0.100,22046.000,0.200,3164.000,0.300,1652.000,0.500,1816.000,1.000,571.000,5.000,0
"04/03/08","20:07:03",29165.000,"cc",28308.133,6.00,6,0.100,22000.000,0.200,3300.000,0.300,1602.000,0.500,1688.000,1.000,575.000,5.000,0
"04/03/08","20:07:09",23477.000,"cc",28354.447,6.00,6,0.100,16897.000,0.200,2729.000,0.300,1582.000,0.500,1683.000,1.000,586.000,5.000,0
"04/03/08","20:07:15",22063.000,"cc",28311.922,6.00,6,0.100,15544.000,0.200,2491.000,0.300,1643.000,0.500,1799.000,1.000,586.000,5.000,0
"04/03/08","20:07:21",22542.000,"cc",28327.656,6.00,6,0.100,15966.000,0.200,2650.000,0.300,1559.000,0.500,1783.000,1.000,584.000,5.000,0
"04/03/08","20:07:27",24451.000,"cc",28274.752,6.00,6,0.100,17569.000,0.200,2858.000,0.300,1661.000,0.500,1800.000,1.000,563.000,5.000,0
"04/03/08","20:07:33",26622.000,"cc",28361.059,6.00,6,0.100,19719.000,0.200,2986.000,0.300,1580.000,0.500,1749.000,1.000,588.000,5.000,0
"04/03/08","20:07:39",26094.000,"cc",28287.565,6.00,6,0.100,19078.000,0.200,2982.000,0.300,1658.000,0.500,1784.000,1.000,592.000,5.000,0
"04/03/08","20:07:45",26170.000,"cc",28320.434,6.00,6,0.100,19249.000,0.200,2936.000,0.300,1667.000,0.500,1713.000,1.000,605.000,5.000,0
"04/03/08","20:07:51",26004.000,"cc",28288.174,6.00,6,0.100,19090.000,0.200,2904.000,0.300,1627.000,0.500,1774.000,1.000,609.000,5.000,0
"04/03/08","20:07:57",24685.000,"cc",28324.916,6.00,6,0.100,17800.000,0.200,2835.000,0.300,1607.000,0.500,1821.000,1.000,622.000,5.000,0
"04/03/08","20:08:03",19425.000,"cc",28317.934,6.00,6,0.100,13135.000,0.200,2277.000,0.300,1617.000,0.500,1795.000,1.000,601.000,5.000,0
"04/03/08","20:08:09",17967.000,"cc",28333.477,6.00,6,0.100,11821.000,0.200,2203.000,0.300,1571.000,0.500,1778.000,1.000,594.000,5.000,0
"04/03/08","20:08:15",17208.000,"cc",28293.461,6.00,6,0.100,11337.000,0.200,2060.000,0.300,1495.000,0.500,1753.000,1.000,563.000,5.000,0
"04/03/08","20:08:21",16376.000,"cc",28293.023,6.00,6,0.100,10438.000,0.200,2061.000,0.300,1619.000,0.500,1664.000,1.000,594.000,5.000,0
"04/03/08","20:08:27",16063.000,"cc",28238.416,6.00,6,0.100,10065.000,0.200,2067.000,0.300,1652.000,0.500,1706.000,1.000,573.000,5.000,0
"04/03/08","20:08:33",16485.000,"cc",28403.250,6.00,6,0.100,10521.000,0.200,2019.000,0.300,1583.000,0.500,1743.000,1.000,619.000,5.000,0
"04/03/08","20:08:39",16292.000,"cc",28363.063,6.00,6,0.100,10439.000,0.200,2037.000,0.300,1575.000,0.500,1694.000,1.000,547.000,5.000,0
"04/03/08","20:08:45",16339.000,"cc",28273.414,6.00,6,0.100,10475.000,0.200,1925.000,0.300,1587.000,0.500,1747.000,1.000,605.000,5.000,0
"04/03/08","20:08:51",16297.000,"cc",28382.254,6.00,6,0.100,10368.000,0.200,2034.000,0.300,1520.000,0.500,1733.000,1.000,642.000,5.000,0
"04/03/08","20:08:57",15728.000,"cc",28376.756,6.00,6,0.100,9989.000,0.200,1903.000,0.300,1513.000,0.500,1757.000,1.000,566.000,5.000,0
"04/03/08","20:09:03",15707.000,"cc",28290.361,6.00,6,0.100,9832.000,0.200,1935.000,0.300,1608.000,0.500,1771.000,1.000,561.000,5.000,0
"04/03/08","20:09:09",15659.000,"cc",28275.307,6.00,6,0.100,9787.000,0.200,1943.000,0.300,1596.000,0.500,1733.000,1.000,600.000,5.000,0
"04/03/08","20:09:15",15629.000,"cc",28303.041,6.00,6,0.100,9770.000,0.200,1974.000,0.300,1522.000,0.500,1762.000,1.000,601.000,5.000,0
"04/03/08","20:09:21",15745.000,"cc",28284.020,6.00,6,0.100,9825.000,0.200,1982.000,0.300,1543.000,0.500,1793.000,1.000,602.000,5.000,0
"04/03/08","20:09:27",15661.000,"cc",28286.461,6.00,6,0.100,9865.000,0.200,1948.000,0.300,1499.000,0.500,1747.000,1.000,602.000,5.000,0
"04/03/08","20:09:33",15749.000,"cc",28361.938,6.00,6,0.100,9937.000,0.200,2023.000,0.300,1509.000,0.500,1696.000,1.000,584.000,5.000,0
"04/03/08","20:09:39",15566.000,"cc",28297.371,6.00,6,0.100,9754.000,0.200,1928.000,0.300,1586.000,0.500,1696.000,1.000,602.000,5.000,0
"04/03/08","20:09:45",15790.000,"cc",28309.313,6.00,6,0.100,10051.000,0.200,1969.000,0.300,1497.000,0.500,1748.000,1.000,525.000,5.000,0
"04/03/08","20:09:51",15797.000,"cc",28330.381,6.00,6,0.100,9952.000,0.200,1931.000,0.300,1596.000,0.500,1710.000,1.000,608.000,5.000,0
"04/03/08","20:09:57",15755.000,"cc",28310.379,6.00,6,0.100,9876.000,0.200,2010.000,0.300,1559.000,0.500,1708.000,1.000,602.000,5.000,0
"04/03/08","20:10:03",15736.000,"cc",28315.254,6.00,6,0.100,9949.000,0.200,1938.000,0.300,1545.000,0.500,1734.000,1.000,570.000,5.000,0
"04/03/08","20:10:09",15728.000,"cc",28311.297,6.00,6,0.100,10045.000,0.200,1944.000,0.300,1510.000,0.500,1673.000,1.000,556.000,5.000,0
"04/03/08","20:10:15",15582.000,"cc",28313.506,6.00,6,0.100,9766.000,0.200,1939.000,0.300,1571.000,0.500,1742.000,1.000,564.000,5.000,0
"04/03/08","20:10:21",15763.000,"cc",28306.840,6.00,6,0.100,9977.000,0.200,1890.000,0.300,1537.000,0.500,1779.000,1.000,580.000,5.000,0
"04/03/08","20:10:27",15692.000,"cc",28344.779,6.00,6,0.100,9846.000,0.200,1916.000,0.300,1673.000,0.500,1672.000,1.000,585.000,5.000,0
"04/03/08","20:10:33",15697.000,"cc",28327.498,6.00,6,0.100,9826.000,0.200,1954.000,0.300,1569.000,0.500,1767.000,1.000,581.000,5.000,0
"04/03/08","20:10:39",15617.000,"cc",28287.225,6.00,6,0.100,9773.000,0.200,1900.000,0.300,1554.000,0.500,1818.000,1.000,572.000,5.000,0
"04/03/08","20:10:45",15886.000,"cc",28360.244,6.00,6,0.100,10092.000,0.200,1885.000,0.300,1624.000,0.500,1731.000,1.000,554.000,5.000,0
"04/03/08","20:10:51",16011.000,"cc",28313.906,6.00,6,0.100,10047.000,0.200,1929.000,0.300,1622.000,0.500,1816.000,1.000,597.000,5.000,0
"04/03/08","20:10:57",15862.000,"cc",28300.570,6.00,6,0.100,9991.000,0.200,1939.000,0.300,1613.000,0.500,1718.000,1.000,601.000,5.000,0
"04/03/08","20:11:03",15935.000,"cc",28294.400,6.00,6,0.100,10098.000,0.200,1936.000,0.300,1625.000,0.500,1678.000,1.000,598.000,5.000,0
"04/03/08","20:11:09",15852.000,"cc",28294.746,6.00,6,0.100,9856.000,0.200,1993.000,0.300,1580.000,0.500,1827.000,1.000,596.000,5.000,0
"04/03/08","20:11:15",15439.000,"cc",28294.613,6.00,6,0.100,9621.000,0.200,1974.000,0.300,1567.000,0.500,1743.000,1.000,534.000,5.000,0
"04/03/08","20:11:21",16007.000,"cc",28371.627,6.00,6,0.100,10075.000,0.200,1999.000,0.300,1576.000,0.500,1794.000,1.000,563.000,5.000,0
"04/03/08","20:11:27",15803.000,"cc",28306.160,6.00,6,0.100,9791.000,0.200,2004.000,0.300,1599.000,0.500,1829.000,1.000,580.000,5.000,0
"04/03/08","20:11:33",15960.000,"cc",28255.350,6.00,6,0.100,9970.000,0.200,2064.000,0.300,1643.000,0.500,1704.000,1.000,579.000,5.000,0
"04/03/08","20:11:39",15913.000,"cc",28331.283,6.00,6,0.100,9958.000,0.200,2040.000,0.300,1572.000,0.500,1763.000,1.000,580.000,5.000,0
"04/03/08","20:11:45",15892.000,"cc",28368.436,6.00,6,0.100,9946.000,0.200,1968.000,0.300,1645.000,0.500,1752.000,1.000,581.000,5.000,0
"04/03/08","20:11:51",15929.000,"cc",28333.799,6.00,6,0.100,10042.000,0.200,1930.000,0.300,1601.000,0.500,1770.000,1.000,586.000,5.000,0
"04/03/08","20:11:57",15593.000,"cc",28281.250,6.00,6,0.100,9754.000,0.200,1951.000,0.300,1573.000,0.500,1727.000,1.000,588.000,5.000,0
"04/03/08","20:12:03",15685.000,"cc",28301.520,6.00,6,0.100,9751.000,0.200,1969.000,0.300,1657.000,0.500,1735.000,1.000,573.000,5.000,0
"04/03/08","20:12:09",15533.000,"cc",28374.352,6.00,6,0.100,9618.000,0.200,1970.000,0.300,1598.000,0.500,1747.000,1.000,600.000,5.000,0
"04/03/08","20:12:15",15635.000,"cc",28334.854,6.00,6,0.100,9829.000,0.200,1933.000,0.300,1575.000,0.500,1748.000,1.000,550.000,5.000,0
"04/03/08","20:12:21",15612.000,"cc",28348.590,6.00,6,0.100,9829.000,0.200,1931.000,0.300,1531.000,0.500,1704.000,1.000,617.000,5.000,0
"04/03/08","20:12:27",15752.000,"cc",28294.969,6.00,6,0.100,9788.000,0.200,1979.000,0.300,1617.000,0.500,1788.000,1.000,580.000,5.000,0
"04/03/08","20:12:33",15706.000,"cc",28255.176,6.00,6,0.100,9793.000,0.200,1944.000,0.300,1587.000,0.500,1805.000,1.000,577.000,5.000,0
"04/03/08","20:12:39",15741.000,"cc",28336.520,6.00,6,0.100,9753.000,0.200,1989.000,0.300,1618.000,0.500,1770.000,1.000,611.000,5.000,0
"04/03/08","20:12:45",15608.000,"cc",28382.885,6.00,6,0.100,9782.000,0.200,1943.000,0.300,1560.000,0.500,1733.000,1.000,590.000,5.000,0
"04/03/08","20:12:51",16037.000,"cc",28275.336,6.00,6,0.100,9983.000,0.200,2060.000,0.300,1587.000,0.500,1787.000,1.000,620.000,5.000,0
"04/03/08","20:12:57",15876.000,"cc",28268.482,6.00,6,0.100,9881.000,0.200,1983.000,0.300,1672.000,0.500,1800.000,1.000,540.000,5.000,0
"04/03/08","20:13:03",15466.000,"cc",28319.268,6.00,6,0.100,9793.000,0.200,1936.000,0.300,1527.000,0.500,1659.000,1.000,551.000,5.000,0
"04/03/08","20:13:09",15826.000,"cc",28319.945,6.00,6,0.100,10020.000,0.200,1998.000,0.300,1521.000,0.500,1723.000,1.000,564.000,5.000,0
"04/03/08","20:13:15",15658.000,"cc",28310.410,6.00,6,0.100,9913.000,0.200,1895.000,0.300,1547.000,0.500,1763.000,1.000,540.000,5.000,0
"04/03/08","20:13:21",15618.000,"cc",28296.299,6.00,6,0.100,9778.000,0.200,1988.000,0.300,1548.000,0.500,1719.000,1.000,585.000,5.000,0
"04/03/08","20:13:27",15904.000,"cc",28383.953,6.00,6,0.100,10001.000,0.200,1989.000,0.300,1600.000,0.500,1748.000,1.000,566.000,5.000,0
"04/03/08","20:13:33",15419.000,"cc",28291.875,6.00,6,0.100,9663.000,0.200,1876.000,0.300,1600.000,0.500,1697.000,1.000,583.000,5.000,0
"04/03/08","20:13:39",15760.000,"cc",28369.666,6.00,6,0.100,9823.000,0.200,1977.000,0.300,1599.000,0.500,1786.000,1.000,575.000,5.000,0
"04/03/08","20:13:45",15721.000,"cc",28301.430,6.00,6,0.100,9887.000,0.200,1942.000,0.300,1555.000,0.500,1735.000,1.000,602.000,5.000,0
"04/03/08","20:13:51",15516.000,"cc",28251.754,6.00,6,0.100,9755.000,0.200,1957.000,0.300,1559.000,0.500,1694.000,1.000,551.000,5.000,0
"04/03/08","20:13:57",15640.000,"cc",28345.639,6.00,6,0.100,9738.000,0.200,1951.000,0.300,1633.000,0.500,1747.000,1.000,571.000,5.000,0
"04/03/08","20:14:03",15473.000,"cc",28339.682,6.00,6,0.100,9690.000,0.200,1949.000,0.300,1528.000,0.500,1739.000,1.000,567.000,5.000,0
"04/03/08","20:14:09",15640.000,"cc",28301.053,6.00,6,0.100,9987.000,0.200,1911.000,0.300,1484.000,0.500,1703.000,1.000,555.000,5.000,0
"04/03/08","20:14:15",15808.000,"cc",28286.166,6.00,6,0.100,9846.000,0.200,1979.000,0.300,1625.000,0.500,1745.000,1.000,613.000,5.000,0
"04/03/08","20:14:21",15734.000,"cc",28323.277,6.00,6,0.100,9797.000,0.200,1997.000,0.300,1624.000,0.500,1698.000,1.000,618.000,5.000,0
"04/03/08","20:14:27",15623.000,"cc",28373.334,6.00,6,0.100,9721.000,0.200,1959.000,0.300,1580.000,0.500,1776.000,1.000,587.000,5.000,0
"04/03/08","20:14:33",15719.000,"cc",28263.652,6.00,6,0.100,9846.000,0.200,2040.000,0.300,1546.000,0.500,1726.000,1.000,561.000,5.000,0
"04/03/08","20:14:39",15619.000,"cc",28283.805,6.00,6,0.100,9824.000,0.200,1897.000,0.300,1522.000,0.500,1774.000,1.000,602.000,5.000,0
"04/03/08","20:14:45",15682.000,"cc",28290.484,6.00,6,0.100,9804.000,0.200,1969.000,0.300,1566.000,0.500,1783.000,1.000,560.000,5.000,0
"04/03/08","20:14:51",15535.000,"cc",28341.992,6.00,6,0.100,9798.000,0.200,1887.000,0.300,1605.000,0.500,1674.000,1.000,571.000,5.000,0
"04/03/08","20:14:57",15853.000,"cc",28269.176,6.00,6,0.100,10030.000,0.200,1960.000,0.300,1617.000,0.500,1663.000,1.000,583.000,5.000,0
"04/03/08","20:15:03",15537.000,"cc",28402.986,6.00,6,0.100,9713.000,0.200,1995.000,0.300,1561.000,0.500,1692.000,1.000,576.000,5.000,0
"04/03/08","20:15:09",15456.000,"cc",28323.766,6.00,6,0.100,9754.000,0.200,1981.000,0.300,1553.000,0.500,1608.000,1.000,560.000,5.000,0
"04/03/08","20:15:15",15444.000,"cc",28270.371,6.00,6,0.100,9663.000,0.200,1943.000,0.300,1596.000,0.500,1616.000,1.000,626.000,5.000,0
"04/03/08","20:15:21",15597.000,"cc",28273.744,6.00,6,0.100,9727.000,0.200,1914.000,0.300,1591.000,0.500,1795.000,1.000,570.000,5.000,0
"04/03/08","20:15:27",15582.000,"cc",28358.432,6.00,6,0.100,9761.000,0.200,1922.000,0.300,1571.000,0.500,1737.000,1.000,591.000,5.000,0
"04/03/08","20:15:33",15745.000,"cc",28318.711,6.00,6,0.100,9921.000,0.200,1906.000,0.300,1592.000,0.500,1741.000,1.000,585.000,5.000,0
"04/03/08","20:15:39",15795.000,"cc",28277.840,6.00,6,0.100,9976.000,0.200,1941.000,0.300,1574.000,0.500,1723.000,1.000,581.000,5.000,0
"04/03/08","20:15:45",15706.000,"cc",28409.897,6.00,6,0.100,10036.000,0.200,1878.000,0.300,1521.000,0.500,1685.000,1.000,586.000,5.000,0
"04/03/08","20:15:51",15844.000,"cc",28331.844,6.00,6,0.100,9828.000,0.200,1982.000,0.300,1679.000,0.500,1753.000,1.000,602.000,5.000,0
"04/03/08","20:15:57",15608.000,"cc",28322.703,6.00,6,0.100,9760.000,0.200,1898.000,0.300,1611.000,0.500,1701.000,1.000,638.000,5.000,0
"04/03/08","20:16:03",15744.000,"cc",28255.846,6.00,6,0.100,9959.000,0.200,1990.000,0.300,1521.000,0.500,1671.000,1.000,603.000,5.000,0
"04/03/08","20:16:09",15701.000,"cc",28279.932,6.00,6,0.100,9843.000,0.200,1974.000,0.300,1571.000,0.500,1747.000,1.000,566.000,5.000,0
"04/03/08","20:16:15",15765.000,"cc",28357.594,6.00,6,0.100,9790.000,0.200,1997.000,0.300,1545.000,0.500,1820.000,1.000,613.000,5.000,0
"04/03/08","20:16:21",15602.000,"cc",28364.561,6.00,6,0.100,9813.000,0.200,1947.000,0.300,1455.000,0.500,1791.000,1.000,596.000,5.000,0
"04/03/08","20:16:27",15468.000,"cc",28400.574,6.00,6,0.100,9713.000,0.200,1933.000,0.300,1590.000,0.500,1662.000,1.000,570.000,5.000,0